Capitol Logistics 1144


LEBL
Barcelona International Airport
Barcelona, ES
EBLG
Liège Airport
Liege, BE

Activity Log

Date Flight Route Aircraft Duration
No Flights Yet

Route Details

Aircraft Information
Primary: Boeing 737-800BCF
Backup: Not Available
Route Data
Distance: 577nm
Sched. Duration: 1h 30m
Avg. Duration: 0h 00m (-130m)
Times Flown: 0
Recm'd Route: Not Available
Planned Altitude: 35,000ft
Origin Wx: LEBL 280100Z 32007KT CAVOK 09/07 Q1020 NOSIG=
Dest. Wx: EBLG 280050Z 19009KT 1700 BR -DZ SCT002 BKN003 04/03 Q1010 TEMPO 1200 -DZ
Notes:

Financial History
Total Freight: 0lbs
Average Load: 0lbs/flt
Fuel Used: 0lbs
Avg. Fuel Used: 0lbs/flt
Fuel Expense: $0
Avg. Fuel Expense: $0
Avg. Fuel Cost: $0/lbs
Total Gross Income: $0
Pilot Pay: $0
Total Expenses: $0
Total Revenue: $0
Average Revenue: $0